TimeCST,TemperatureF,Dew PointF,Humidity,Sea Level PressureIn,VisibilityMPH,Wind Direction,Wind SpeedMPH,Gust SpeedMPH,PrecipitationIn,Events,Conditions,WindDirDegrees,DateUTC
12:53 AM,37.9,30.9,76,29.86,10.0,South,4.6,-,N/A,,Clear,170,2012-12-01 06:53:00
1:53 AM,37.0,32.0,82,29.83,10.0,SSW,9.2,-,N/A,,Clear,200,2012-12-01 07:53:00
2:53 AM,37.0,32.0,82,29.81,10.0,South,3.5,-,N/A,,Clear,170,2012-12-01 08:53:00
3:53 AM,37.0,32.0,82,29.81,10.0,Calm,Calm,-,N/A,,Clear,0,2012-12-01 09:53:00
4:53 AM,33.1,30.0,89,29.81,8.0,Calm,Calm,-,N/A,,Clear,0,2012-12-01 10:53:00
5:53 AM,32.0,28.9,88,29.83,8.0,Calm,Calm,-,N/A,,Clear,0,2012-12-01 11:53:00
6:53 AM,34.0,30.0,85,29.85,9.0,SSW,4.6,-,N/A,,Clear,200,2012-12-01 12:53:00
7:53 AM,37.9,30.9,76,29.85,10.0,SW,6.9,-,N/A,,Clear,220,2012-12-01 13:53:00
8:53 AM,41.0,30.9,67,29.86,10.0,WSW,4.6,-,N/A,,Mostly Cloudy,250,2012-12-01 14:53:00
9:53 AM,54.0,33.1,45,29.82,10.0,NW,12.7,-,N/A,,Partly Cloudy,320,2012-12-01 15:53:00
10:53 AM,57.0,32.0,39,29.83,10.0,NW,11.5,-,N/A,,Clear,310,2012-12-01 16:53:00
11:53 AM,66.0,32.0,28,29.78,10.0,NW,16.1,-,N/A,,Clear,310,2012-12-01 17:53:00
12:53 PM,69.1,33.1,26,29.76,10.0,NNW,19.6,-,N/A,,Clear,330,2012-12-01 18:53:00
1:53 PM,69.1,33.1,26,29.76,10.0,WNW,13.8,-,N/A,,Clear,290,2012-12-01 19:53:00
2:53 PM,66.9,32.0,27,29.77,10.0,WNW,15.0,24.2,N/A,,Clear,300,2012-12-01 20:53:00
3:53 PM,66.0,33.1,29,29.80,10.0,NNW,11.5,-,N/A,,Clear,330,2012-12-01 21:53:00
4:53 PM,60.1,33.1,36,29.83,10.0,NW,4.6,-,N/A,,Clear,320,2012-12-01 22:53:00
5:53 PM,48.9,30.9,50,29.87,10.0,NNW,3.5,-,N/A,,Clear,340,2012-12-01 23:53:00
6:53 PM,46.0,30.9,56,29.89,10.0,Calm,Calm,-,N/A,,Clear,0,2012-12-02 00:53:00
7:53 PM,42.1,30.9,65,29.91,10.0,Calm,Calm,-,N/A,,Clear,0,2012-12-02 01:53:00
8:53 PM,39.9,30.0,68,29.92,10.0,NE,6.9,-,N/A,,Clear,40,2012-12-02 02:53:00
9:53 PM,37.0,28.9,73,29.91,10.0,North,3.5,-,N/A,,Clear,350,2012-12-02 03:53:00
10:53 PM,33.1,27.0,78,29.93,10.0,SW,5.8,-,N/A,,Clear,220,2012-12-02 04:53:00
11:53 PM,34.0,28.0,79,29.91,10.0,Calm,Calm,-,N/A,,Clear,0,2012-12-02 05:53:00